Regional Weather Roundup
Issued by NWS

Home | Current Version | Previous Version | Graphics & Text | Print | Product List | Glossary On
Versions: 1 2 3 4 5 6 7 8 9 10 11 12 13 14 15 16 17 18 19 20 21 22 23 24 25 26 27 28 29 30 31 32 33 34 35 36 37 38 39 40 41 42 43 44 45 46 47 48 49 50
000
ASUS45 KTFX 220619
RWRMT
MONTANA HOURLY WEATHER ROUNDUP
NATIONAL WEATHER SERVICE GREAT FALLS MT
1219 AM MDT MON SEP 22 2014

NOTE: "FAIR" INDICATES FEW OR NO CLOUDS BELOW 12000 FEET WITH NO
SIGNIFICANT WEATHER AND/OR OBSTRUCTIONS TO VISIBILITY.

* THESE STATIONS ARE NOT UNDER NWS QUALITY CONTROL. THEY DO NOT
   REPORT WEATHER SUCH AS PRECIPITATION OR FOG.

MTZ001>007-043-220700-
WEST OF THE DIVIDE
CITY           SKY/WX    TMP DP  RH WIND       PRES   REMARKS
KALISPELL      PTCLDY    48  45  89 N3        29.94S
MISSOULA       PTCLDY    61  45  56 E3        29.97R
BUTTE          PTCLDY    57  41  55 SW3       30.12F
MULLAN PASS    MOCLDY    64  37  37 W6        30.12F
* ESSEX        N/A       54  44  69 SE4        N/A
* LINCOLN      N/A       49  39  69 NE1        N/A
* POLSON       N/A       62  40  45 SE1        N/A
* RONAN APT    MOCLDY    54  45  72 N/A        N/A
* SEELEY LAKE  N/A       48  37  66 N2         N/A
* THOMP F APT  MOCLDY    54  50  86 S9G14      N/A
$$

MTZ008-052>055-220700-
SOUTHWEST MONTANA
CITY           SKY/WX    TMP DP  RH WIND       PRES   REMARKS
BOZEMAN        CLOUDY    55  46  72 W3        30.08F
DILLON         MOCLDY    57  43  60 SW8       30.10F
W YELLOWSTONE  CLOUDY    57  45  64 S10G17    30.24R
* THREE FORKS  CLOUDY    54  54 100 N/A        N/A
* BOULDER HILL N/A       58  38  47 S8         N/A
* MONIDA PASS  N/A       54  49  83 SE10G19    N/A
* RAYNOLDS PAS N/A       56  37  49 SE6        N/A
* WHITEHALL    N/A       58  43  58 N8         N/A
* WISE RIVER   N/A       54  35  49 SW2        N/A
$$

MTZ009>010-012-014-046-048-049-054-220700-
EAST SLOPES AND CENTRAL MONTANA
CITY           SKY/WX    TMP DP  RH WIND       PRES   REMARKS
CUT BANK       PTCLDY    55  43  64 SE3       30.00F
GREAT FALLS    PTCLDY    64  45  50 S12       30.00S
HELENA         PTCLDY    57  45  64 S3        30.04S
MALMSTROM AFB  PTCLDY    54  46  74 VRB1      30.01F
* CONRAD       PTCLDY    45  43  93 N/A        N/A
* EAST GLACIER N/A       51  43  74 N10        N/A
* MONARCH      N/A       59  39  48 S13G19     N/A
* PENDROY      N/A       60  48  65 SW8        N/A
* ROGERS PASS  N/A       63  42  46 NW4G9      N/A
* SAINT MARY   N/A       44  39  83 S3         N/A
* SWEET GRASS  N/A       59  44  58 S18G23     N/A
* WHITE SULPH  N/A       54  41  62 E8         N/A
$$

MTZ011-013-016-021-035-040-045-047-050-051-220700-
NORTH CENTRAL MONTANA
CITY           SKY/WX    TMP DP  RH WIND       PRES   REMARKS
HAVRE          CLEAR     52  45  77 E8        29.97F
LEWISTOWN      PTCLDY    55  43  64 SE7       30.06F
* CHINOOK      CLEAR     55  46  72 E9        29.99F
* FORT BENTON  CLEAR     61  45  56 E7        29.98F
* CHESTER      N/A       60  44  56 SE6G11     N/A
* DENTON       N/A       57  41  55 SE10       N/A
* GEYSER       N/A       47  44  89 SW7        N/A
* JUDITH GAP   N/A       53  43  69 SW6        N/A
* LOMA         N/A       60  45  58 NE8        N/A
$$

MTZ017>020-022>027-061-062-220700-
NORTHEAST MONTANA
CITY           SKY/WX    TMP DP  RH WIND       PRES   REMARKS
GLASGOW        CLEAR     54  36  51 E13       30.06F
JORDAN         CLEAR     55  39  55 SE3       30.07F
SIDNEY         CLEAR     43  36  76 CALM      30.14F
WOLF POINT     CLEAR     48  37  66 NE3       30.10F
* BEAVER HILL  N/A       56  34  44 SE14       N/A
* CIRCLE       N/A       55  39  55 N/A        N/A
* LINDSAY DVD  N/A       50  34  54 SE2        N/A
$$

MTZ028>042-056>058-220700-
SOUTHCENTRAL AND SOUTHEAST MONTANA
CITY           SKY/WX    TMP DP  RH WIND       PRES   REMARKS
BAKER          CLEAR     52  36  55 SE8       30.17F
BILLINGS       MOCLDY    57  43  60 NW5       30.05F
LIVINGSTON     MOCLDY    54  45  72 S3        30.10F
MILES CITY     PTCLDY    63  36  37 SE14      30.09F
* LAUREL APT   MOCLDY    61  39  44 N/A        N/A
* ROUNDUP APT  PTCLDY    59  43  56 N/A        N/A
* ALZADA       N/A       52  38  59 E4         N/A
* HYSHAM       N/A       64  39  40 E7         N/A
* LAME DEER    N/A       61  39  44 SE9G14     N/A
* REED POINT   N/A       51  48  90 W4         N/A
* ROSCOE HILL  N/A       59  39  48 SW4        N/A
$$

REGIONAL REPORTS...DAKOTAS
CITY           SKY/WX    TMP DP  RH WIND       PRES   REMARKS
WILLISTON      CLEAR     48  39  71 CALM      30.13F
DICKINSON      CLEAR     45  36  71 S9        30.17F
BEACH          N/A       48  37  66 S7        30.16F
CROSBY         CLEAR     50  39  66 S10       30.11F
TIOGA          CLEAR     45  39  80 CALM      30.17F
WATFORD CITY   HAZE      45  37  74 CALM      30.12F VSB 3
BISMARCK       CLEAR     46  43  89 CALM      30.21S
GRAND FORKS    CLEAR     50  48  93 S9        30.16F
FARGO          CLEAR     52  48  86 S7        30.20F
BUFFALO SD     CLEAR     52  37  57 SE7       30.13F
RAPID CITY     MOCLDY    54  36  51 S5        30.22F
$$

REGIONAL REPORTS...WYOMING/IDAHO/WASHINGTON
CITY           SKY/WX    TMP DP  RH WIND       PRES   REMARKS
GILLETTE       PTCLDY    59  37  44 S18       30.16F
SHERIDAN       MOCLDY    61  45  56 SW6       30.08F
CODY           CLOUDY   N/A N/A N/A N/A        N/A
YELLOWSTONE LA CLOUDY    52  43  72 W5        30.33S
SALMON         MOCLDY    61  46  58 CALM      30.01R
MULLAN PASS    MOCLDY    64  37  37 W6        30.12S
SAND POINT     CLEAR     50  50 100 CALM      29.91S
SPOKANE        PTCLDY    64  41  43 SW5       29.90S
$$

REGIONAL REPORTS...ALBERTA
CITY           SKY/WX    TMP DP  RH WIND       PRES   REMARKS
CALGARY        N/A       57  45  64 S3        29.88F
LETHBRIDGE     CLEAR     61  45  56 SW18G24   29.91F
MEDICINE HAT   CLEAR     61  46  58 W3        29.92F
EDMONTON       N/A       57  45  64 S9        29.76F
WATERTON GATE  N/A       57  39  51 S9         N/A
CARDSTON       N/A       57  45  64 S6         N/A
$$

REGIONAL REPORTS...SASKATCHEWAN
CITY           SKY/WX    TMP DP  RH WIND       PRES   REMARKS
SWIFT CURRENT  CLEAR     57  41  55 S22       30.00F
REGINA         N/A       48  41  77 SE8       30.07F
VAL MARIE      N/A       52  39  61 S2         N/A
ASSINIBOIA     N/A       52  39  61 S7         N/A
CORONACH       N/A       50  36  59 SE6        N/A

$$



USA.gov is the U.S. government's official web portal to all federal, state and local government web resources and services.